RH
19 17 15 15 14 12 12 10 11 12 16 28 28 30 29 24 28 27 34 33 25 28 24 22 24 26 27 29 31 31 33 34 37 40 43 50 52 54 61 60 56 57 55 50
21 18 17 15 14 13 14 14 11 12 15 19 31 32 30 31 28 26 23 23 29 29 26 24 24 25 28 30 31 31 31 32 34 35 41 47 49 50 52 52 57 55 50 48
25 22 20 18 15 14 14 14 14 10 15 21 30 31 36 41 37 31 26 19 29 30 30 30 28 27 29 32 31 30 31 34 35 34 35 37 45 52 56 61 58 59 55 50
49 44 32 19 17 16 15 16 15 11 11 16 23 37 41 41 41 37 30 23 24 29 32 32 31 31 34 35 32 33 30 31 35 37 38 40 42 40 43 49 59 70 68 62
46 44 45 44 22 19 17 17 17 17 15 15 24 49 50 42 37 32 25 24 24 25 28 31 32 34 35 38 37 36 35 33 35 36 40 45 45 42 42 45 51 59 62 62
58 51 48 34 30 26 21 20 16 17 17 17 22 31 49 38 26 27 28 28 25 25 31 32 35 37 39 40 41 42 41 40 37 37 37 40 44 46 49 49 53 57 59 68
48 37 29 30 37 35 30 23 18 18 18 20 26 35 47 40 42 37 32 30 29 28 28 34 38 40 41 43 44 44 44 46 44 42 41 42 47 50 54 58 61 62 63 70
70 58 44 40 52 50 39 30 21 21 19 34 38 44 58 54 50 45 38 34 31 30 29 29 30 32 37 46 48 49 48 51 56 57 58 61 61 63 69 76 77 83 75 70
93 64 48 44 48 51 58 41 44 29 36 42 37 38 54 57 39 36 32 32 29 31 29 28 28 30 32 36 41 45 45 48 57 63 72 77 85 95 91 94 90 91 93 82
81 57 49 42 48 52 57 73 61 55 49 49 51 51 43 36 37 34 33 35 34 32 32 31 31 29 33 34 35 38 43 47 49 55 63 69 75 86 79 72 82 86 94 97
69 57 57 55 60 71 94 71 48 51 59 53 52 47 41 39 38 38 37 37 38 37 38 40 38 35 34 36 34 36 41 43 48 52 58 63 69 76 76 77 70 77 71 77
72 64 79 69 74 71 90 83 51 44 50 50 46 43 43 44 40 38 38 41 43 44 43 44 45 45 43 41 41 41 41 41 42 44 49 51 54 57 60 62 70 71 74 78
94 62 76 72 84 79 63 54 46 46 49 49 46 45 44 42 42 45 47 45 45 45 45 44 49 48 46 45 45 46 45 44 47 50 54 55 55 64 72 79 80 79 77 73
76 82 74 69 57 59 57 51 51 49 50 51 53 50 49 48 46 48 48 45 45 46 45 43 48 52 50 48 48 47 47 45 48 51 54 59 66 76 77 84 84 86 85 85
76 71 68 72 72 68 65 61 54 53 56 56 56 54 53 53 51 51 48 43 41 39 42 44 44 46 49 49 50 50 51 53 55 54 55 54 54 57 64 70 77 73 70 61
50 56 50 64 76 62 55 57 56 53 57 57 54 53 53 55 51 44 44 43 47 48 44 43 44 45 47 48 51 53 54 54 52 53 53 52 54 56 56 55 54 53 54 52
43 43 46 46 55 58 60 55 53 53 57 58 54 52 52 54 53 51 52 47 42 43 43 44 45 45 45 50 49 53 54 49 46 47 47 47 47 50 55 57 57 51 49 47
42 38 39 46 47 52 55 63 62 63 61 61 54 49 51 52 52 54 52 48 45 48 51 49 47 49 52 52 52 51 46 45 45 47 48 51 52 47 44 45 49 49 46 44
52 53 49 44 43 43 56 76 62 64 54 55 52 48 54 55 56 56 56 60 56 57 57 56 51 53 54 44 43 47 47 49 51 49 51 54 54 59 64 56 51 55 52 47
48 51 53 52 43 38 37 52 55 91 78 48 44 50 58 59 56 57 60 59 63 64 54 56 54 57 48 40 44 46 51 45 42 43 45 48 47 44 43 44 45 48 51 51
56 53 52 56 52 47 38 42 48 71 57 44 47 50 58 62 66 58 61 59 51 42 42 42 47 48 47 44 44 50 50 45 47 46 43 43 41 44 49 58 58 54 53 52
55 57 54 56 60 54 49 52 58 49 46 48 54 59 62 66 70 68 66 64 54 46 46 47 41 43 41 38 41 42 41 38 36 35 34 36 41 46 46 41 42 46 44 47
52 50 49 53 63 65 62 59 46 81 46 55 60 57 58 69 71 69 63 54 44 38 36 34 37 38 37 37 38 40 40 39 40 41 38 42 40 35 35 34 36 42 41 33
52 54 48 48 59 64 68 68 65 74 50 60 61 63 63 60 61 63 52 44 38 36 33 33 34 36 40 44 43 43 44 45 44 38 42 45 45 45 38 40 39 40 38 37
52 54 54 52 60 72 86 75 87 60 62 66 66 70 67 66 69 55 42 44 41 41 43 43 38 35 40 47 47 46 46 47 43 38 36 40 42 41 43 43 41 43 47 47
50 55 59 58 59 73 82 97 82 74 72 70 68 74 75 76 69 62 55 46 49 51 54 52 48 46 51 51 46 49 48 46 46 47 41 38 42 50 45 45 44 43 51 55
53 60 69 66 63 75 87 98 92 85 80 72 73 76 77 74 75 68 64 61 63 59 61 57 51 52 53 54 51 56 58 55 46 47 46 51 46 47 45 44 46 44 45 45